Location: Canazei
(46.4667°N, 11.7667°E)
Time: 04:48:36
(UTC+00:00)

ARIANE 5 R/B - Pass Details

Date: 21 April 2021
Orbit: 749 x 794 km, 98.7° (Epoch: 10 May)

Event Time Altitude Azimuth Distance (km) Brightness Sun altitude
Rises 01:25:14 0° 24° (NNE) 3,307 7.1 -24.4°
Reaches altitude 10° 01:27:57 10° 37° (NE) 2,372 6.1 -24.1°
Maximum altitude 01:32:18 26° 94° (E) 1,523 4.3 -23.7°
Enters shadow 01:35:59 13° 145° (SE) 2,158 4.7 -23.3°
